Weather History for KRDD - January, 2013

Change the Weather History Date:

Thursday, January 3, 2013

  Actual Average Record
Temperature  
Mean Temperature 39 °F -  
Max Temperature 54 °F 54 °F 70 °F (1999)
Min Temperature 24 °F 36 °F 24 °F (2013)
Degree Days  
Heating Degree Days 26    
Cooling Degree Days 0    
Moisture  
Dew Point 27 °F    
Average Humidity 64    
Maximum Humidity 92    
Minimum Humidity 35    
Precipitation  
Precipitation 0.00 in 0.19 in 1.64 in (1988)
Month to date precipitation 0.00 0.58  
Year to date precipitation 0.00 0.58  
Since 1 July precipitation 19.16 14.34  
Sea Level Pressure  
Sea Level Pressure 30.24 in    
Wind  
Wind Speed 1 mph (SSW)    
Max Wind Speed 6 mph    
Max Gust Speed 7 mph    
Visibility 10 miles    
Events      
T = Trace of Precipitation, MM = Missing Value Source: NWS Daily Summary

Daily Weather History Graph

Daily Weather History Graph

Search for Another Location

Airport or City:

Trip Planner

Search our weather history database for the weather conditions in past years. The results will help you decide how hot, cold, wet, or windy it might be!

Date:

Astronomy

Jan. 03, 2013 Rise Set
Actual Time 7:32 AM PST 4:55 PM PST
Civil Twilight 7:02 AM PST 5:25 PM PST
Nautical Twilight 6:28 AM PST 6:00 PM PST
Astronomical Twilight 5:54 AM PST 6:33 PM PST
Moon 11:38 PM PST (1/3) 10:45 AM PST (1/3)
Length of Visible Light 10h 23m
Length of Day
9h 22m
Waning Gibbous, 64% of the Moon is Illuminated
Jan 3
Waning Gibbous
Jan 4
Last Quarter
Jan 11
New
Jan 18
First Quarter
Jan 26
Full

Hourly Weather History & Observations

Time (PST) Temp. Windchill Dew Point Humidity Pressure Visibility Wind Dir Wind Speed Gust Speed Precip Events Conditions
12:53 AM 28.9 °F 25.2 °F 26.1 °F 89% 30.18 in 9.0 mi West 3.5 mph - N/A   Clear
1:53 AM 28.9 °F - 25.0 °F 85% 30.19 in 10.0 mi Calm Calm - N/A   Clear
2:53 AM 27.0 °F - 24.1 °F 89% 30.19 in 10.0 mi Calm Calm - N/A   Clear
3:53 AM 26.1 °F - 23.0 °F 88% 30.20 in 10.0 mi Calm Calm - N/A   Clear
4:53 AM 26.1 °F - 23.0 °F 88% 30.20 in 10.0 mi Calm Calm - N/A   Clear
5:53 AM 25.0 °F - 21.9 °F 88% 30.21 in 9.0 mi Calm Calm - N/A   Clear
6:53 AM 24.1 °F - 21.0 °F 88% 30.22 in 10.0 mi Calm Calm - N/A   Clear
7:53 AM 25.0 °F - 21.0 °F 85% 30.25 in 8.0 mi Calm Calm - N/A   Clear
8:53 AM 32.0 °F - 26.1 °F 79% 30.26 in 9.0 mi Calm Calm - N/A   Scattered Clouds
9:53 AM 34.0 °F - 28.9 °F 82% 30.28 in 10.0 mi Calm Calm - N/A   Overcast
10:53 AM 41.0 °F - 30.9 °F 67% 30.27 in 10.0 mi Calm Calm - N/A   Mostly Cloudy
11:53 AM 48.9 °F - 27.0 °F 43% 30.24 in 10.0 mi Calm Calm - N/A   Mostly Cloudy
12:53 PM 50.0 °F - 27.0 °F 41% 30.22 in 10.0 mi Calm Calm - N/A   Mostly Cloudy
1:53 PM 52.0 °F - 28.9 °F 41% 30.22 in 10.0 mi Calm Calm - N/A   Scattered Clouds
2:53 PM 52.0 °F - 28.9 °F 41% 30.22 in 10.0 mi South 3.5 mph - N/A   Partly Cloudy
3:53 PM 53.1 °F - 26.1 °F 35% 30.24 in 10.0 mi WSW 3.5 mph - N/A   Mostly Cloudy
4:53 PM 51.1 °F - 28.0 °F 41% 30.25 in 10.0 mi SSE 3.5 mph - N/A   Mostly Cloudy
5:53 PM 46.9 °F - 28.0 °F 48% 30.26 in 10.0 mi Calm Calm - N/A   Mostly Cloudy
6:53 PM 43.0 °F - 28.9 °F 58% 30.27 in 10.0 mi Calm Calm - N/A   Mostly Cloudy
7:53 PM 39.9 °F - 28.9 °F 65% 30.28 in 10.0 mi Calm Calm - N/A   Partly Cloudy
8:53 PM 37.9 °F - 30.0 °F 73% 30.27 in 10.0 mi Calm Calm - N/A   Clear
9:53 PM 36.0 °F - 28.9 °F 76% 30.28 in 10.0 mi Calm Calm - N/A   Clear
10:53 PM 35.1 °F - 28.9 °F 78% 30.29 in 10.0 mi Calm Calm - N/A   Clear
11:53 PM 32.0 °F - 27.0 °F 82% 30.29 in 10.0 mi Calm Calm - N/A   Clear